Location: Caltech
(34.1382°N, 118.1253°W)
Time: 13:43:36
(UTC-07:00)

Cosmos 1697 Rocket - Visible Passes

Search period start: 24 April 2018 00:00
Search period end: 04 May 2018 00:00
Orbit: 831 x 845 km, 71.0° (Epoch: 23 April)

Date Brightness Start Highest point End Pass type
(mag) Time Alt. Az. Time Alt. Az. Time Alt. Az.
24 Apr 5.3 01:05:00 10° NNE 01:06:40 13° NE 01:06:40 13° NE visible
24 Apr 4.7 02:46:49 10° NNW 02:48:22 19° NNW 02:48:22 19° NNW visible
25 Apr 5.4 00:49:08 10° NNE 00:50:26 12° NE 00:50:26 12° NE visible
25 Apr 4.8 02:30:39 10° NNW 02:32:07 19° NNW 02:32:07 19° NNW visible
26 Apr 5.4 00:33:20 10° NNE 00:34:14 11° NE 00:34:14 11° NE visible
26 Apr 4.9 02:14:29 10° NNW 02:15:56 19° NNW 02:15:56 19° NNW visible
27 Apr 5.4 00:17:40 10° NE 00:18:06 11° NE 00:18:06 11° NE visible
27 Apr 4.9 01:58:20 10° NNW 01:59:48 19° NNW 01:59:48 19° NNW visible
28 Apr 4.9 01:42:11 10° NNW 01:43:43 19° NNW 01:43:43 19° NNW visible
29 Apr 4.9 01:26:02 10° NNW 01:27:41 20° NNW 01:27:41 20° NNW visible
30 Apr 4.9 01:09:53 10° NNW 01:11:40 21° NNW 01:11:40 21° NNW visible
01 May 4.8 00:53:45 10° NNW 00:55:42 22° N 00:55:42 22° N visible
02 May 4.8 00:37:37 10° NNW 00:39:45 23° N 00:39:45 23° N visible
03 May 4.7 00:21:30 10° N 00:23:50 25° N 00:23:50 25° N visible
